Flag for U.S.A. Weather past 2 weeks in Sunrise Manor, Nevada, U.S.A.

Now
45 °F

Clear.


Feels Like: 45 °F
Forecast: 38 / 59 °F
Wind: No wind

Location: Nellis Air Force Base

Current Time: Dec 19, 2014 at 11:32:07 PM

Latest Report: Dec 19, 2014 at 10:58 PM


Visibility: 10 mi

Pressure: 30.19 "Hg

Humidity: 80%

Dew point: 39 °F

Location of Sunrise ManorLocation

Historic Weather in Sunrise Manor — Graph

°F

Sunrise Manor temperature yesterday

Maximum temperature yesterday: 55 °F (at 11:58 AM)
Minimum temperature yesterday: 40 °F (at 11:58 PM)
Average temperature yesterday: 49 °F

Past Weeks' High & Low Weather Summary

 TemperatureHumidityPressure
High68 °F (Dec 9, 1:58 PM)100% (Dec 4, 9:58 PM)30.32 "Hg (Dec 4, 9:58 PM)
Low34 °F (Dec 14, 5:58 AM)30% (Dec 10, 1:58 PM)29.85 "Hg (Dec 12, 10:58 AM)
Average51 °F70%30.10 "Hg
* Reported Dec 4 9:58 PM — Dec 19 9:58 PM, Sunrise Manor, Weather by CustomWeather, © 2014

Note: Actual official high and low records may vary slightly from our data, if they occured in-between our weather recording intervals... More about our weather records

Advertising

Sunrise Manor weather history for previous 24 hours

 ConditionsComfort  
Time TempWeatherWind HumidityBarometerVisibility
9:58 PM
Dec 19
49 °FClear.No wind73%30.19 "Hg10 mi
8:58 PM50 °FOvercast.7 mph69%30.17 "Hg10 mi
7:58 PM51 °FPassing clouds.7 mph69%30.17 "Hg10 mi
6:58 PM51 °FClear.7 mph68%30.18 "Hg10 mi
5:58 PM52 °FClear.7 mph65%30.19 "Hg10 mi
4:58 PM52 °FClear.8 mph66%30.17 "Hg10 mi
3:58 PM54 °FSunny.5 mph62%30.16 "Hg10 mi
2:58 PM55 °FSunny.3 mph60%30.17 "Hg10 mi
1:58 PM55 °FSunny.8 mph59%30.17 "Hg10 mi
12:58 PM54 °FSunny.9 mph60%30.19 "Hg10 mi
11:58 AM53 °FSunny.6 mph64%30.20 "Hg10 mi
10:58 AM49 °FSunny.1 mph71%30.24 "Hg10 mi
9:58 AM46 °FSunny.No wind77%30.28 "Hg8 mi
8:58 AM42 °FSunny.No wind85%30.28 "Hg10 mi
7:58 AM40 °FSunny.5 mph88%30.28 "Hg10 mi
6:58 AM37 °FSunny.3 mph96%30.26 "Hg10 mi
5:58 AM37 °FClear.5 mph93%30.26 "Hg10 mi
4:58 AM39 °FClear.No wind89%30.24 "Hg10 mi
3:58 AM39 °FClear.No wind93%30.22 "Hg10 mi
2:58 AM38 °FClear.5 mph94%30.23 "Hg10 mi
1:58 AM41 °FClear.No wind86%30.24 "Hg10 mi
12:58 AM41 °FClear.2 mph91%30.22 "Hg10 mi
11:58 PM
Dec 18
40 °FClear.2 mph90%30.22 "Hg10 mi
Weather by CustomWeather, © 2014

See weather overviewHow to use our weather pages